Time,TemperatureF,DewpointF,PressureIn,WindDirection,WindDirectionDegrees,WindSpeedMPH,WindSpeedGustMPH,Humidity,HourlyPrecipIn,Conditions,Clouds,dailyrainin,SoftwareType,DateUTC
2013-04-02 00:03:00,32.6,16.4,30.28,North,351,0.0,0.0,51,0.00,,,0.00,Wunderground v.1.15,2013-04-02 05:03:00,
2013-04-02 00:13:00,32.1,16.4,30.28,NNW,348,0.0,0.0,52,0.00,,,0.00,Wunderground v.1.15,2013-04-02 05:13:00,
2013-04-02 00:23:00,31.7,16.5,30.29,NNW,343,0.0,0.0,53,0.00,,,0.00,Wunderground v.1.15,2013-04-02 05:23:00,
2013-04-02 00:33:00,31.5,16.3,30.29,NNW,344,0.0,0.0,53,0.00,,,0.00,Wunderground v.1.15,2013-04-02 05:33:00,
2013-04-02 00:43:00,31.3,16.6,30.29,NNW,344,0.0,0.0,54,0.00,,,0.00,Wunderground v.1.15,2013-04-02 05:43:00,
2013-04-02 00:53:00,31.1,16.4,30.29,North,349,0.0,0.0,54,0.00,,,0.00,Wunderground v.1.15,2013-04-02 05:53:00,
2013-04-02 01:03:00,31.3,16.6,30.29,NNW,331,0.0,0.0,54,0.00,,,0.00,Wunderground v.1.15,2013-04-02 06:03:00,
2013-04-02 01:12:00,31.1,16.4,30.30,NW,315,0.0,0.0,54,0.00,,,0.00,Wunderground v.1.15,2013-04-02 06:12:00,
2013-04-02 01:23:00,31.0,16.3,30.30,North,355,0.0,0.0,54,0.00,,,0.00,Wunderground v.1.15,2013-04-02 06:23:00,
2013-04-02 01:33:00,31.0,15.8,30.30,North,355,0.0,0.0,53,0.00,,,0.00,Wunderground v.1.15,2013-04-02 06:33:00,
2013-04-02 01:43:00,31.0,15.8,30.30,NNW,340,0.0,0.0,53,0.00,,,0.00,Wunderground v.1.15,2013-04-02 06:43:00,
2013-04-02 01:53:00,31.0,15.8,30.30,West,268,0.0,0.0,53,0.00,,,0.00,Wunderground v.1.15,2013-04-02 06:53:00,
2013-04-02 02:03:00,30.8,15.7,30.30,NNW,348,0.0,0.0,53,0.00,,,0.00,Wunderground v.1.15,2013-04-02 07:03:00,
2013-04-02 02:13:00,30.7,15.6,30.30,NW,326,0.0,0.0,53,0.00,,,0.00,Wunderground v.1.15,2013-04-02 07:13:00,
2013-04-02 02:23:00,30.4,15.7,30.30,NW,305,0.0,0.0,54,0.00,,,0.00,Wunderground v.1.15,2013-04-02 07:23:00,
2013-04-02 02:33:00,30.4,15.7,30.30,NNW,347,0.0,0.0,54,0.00,,,0.00,Wunderground v.1.15,2013-04-02 07:33:00,
2013-04-02 02:43:00,30.4,15.7,30.30,NNW,342,0.0,0.0,54,0.00,,,0.00,Wunderground v.1.15,2013-04-02 07:43:00,
2013-04-02 02:53:00,30.2,16.0,30.30,NNW,329,0.0,0.0,55,0.00,,,0.00,Wunderground v.1.15,2013-04-02 07:53:00,
2013-04-02 03:03:00,29.9,16.1,30.30,NW,323,0.0,0.0,56,0.00,,,0.00,Wunderground v.1.15,2013-04-02 08:03:00,
2013-04-02 03:13:00,29.5,16.1,30.30,WNW,290,0.0,0.0,57,0.00,,,0.00,Wunderground v.1.15,2013-04-02 08:13:00,
2013-04-02 03:23:00,29.0,16.1,30.31,NW,322,0.0,0.0,58,0.00,,,0.00,Wunderground v.1.15,2013-04-02 08:23:00,
2013-04-02 03:33:00,27.4,15.7,30.31,NW,322,0.0,0.0,61,0.00,,,0.00,Wunderground v.1.15,2013-04-02 08:33:00,
2013-04-02 03:43:00,26.1,16.3,30.32,NW,322,0.0,0.0,66,0.00,,,0.00,Wunderground v.1.15,2013-04-02 08:43:00,
2013-04-02 03:53:00,25.3,16.2,30.32,NW,322,0.0,0.0,68,0.00,,,0.00,Wunderground v.1.15,2013-04-02 08:53:00,
2013-04-02 04:03:00,25.0,16.6,30.32,NW,322,0.0,0.0,70,0.00,,,0.00,Wunderground v.1.15,2013-04-02 09:03:00,
2013-04-02 04:13:00,24.9,16.8,30.32,NW,322,0.0,0.0,71,0.00,,,0.00,Wunderground v.1.15,2013-04-02 09:13:00,
2013-04-02 04:23:00,24.9,16.8,30.32,NW,322,0.0,0.0,71,0.00,,,0.00,Wunderground v.1.15,2013-04-02 09:23:00,
2013-04-02 04:33:00,24.4,16.3,30.32,NW,322,0.0,0.0,71,0.00,,,0.00,Wunderground v.1.15,2013-04-02 09:33:00,
2013-04-02 04:43:00,24.1,16.7,30.32,NW,322,0.0,0.0,73,0.00,,,0.00,Wunderground v.1.15,2013-04-02 09:43:00,
2013-04-02 04:53:00,24.1,17.0,30.32,NW,322,0.0,0.0,74,0.00,,,0.00,Wunderground v.1.15,2013-04-02 09:53:00,
2013-04-02 05:03:00,23.8,16.7,30.32,NW,322,0.0,0.0,74,0.00,,,0.00,Wunderground v.1.15,2013-04-02 10:03:00,
2013-04-02 05:13:00,23.1,16.0,30.33,NW,322,0.0,0.0,74,0.00,,,0.00,Wunderground v.1.15,2013-04-02 10:13:00,
2013-04-02 05:23:00,22.8,16.4,30.33,NW,322,0.0,0.0,76,0.00,,,0.00,Wunderground v.1.15,2013-04-02 10:23:00,
2013-04-02 05:33:00,23.1,17.0,30.33,NW,322,0.0,0.0,77,0.00,,,0.00,Wunderground v.1.15,2013-04-02 10:33:00,
2013-04-02 05:43:00,23.8,17.0,30.33,NW,322,0.0,0.0,75,0.00,,,0.00,Wunderground v.1.15,2013-04-02 10:43:00,
2013-04-02 05:53:00,24.2,17.1,30.33,NW,322,0.0,0.0,74,0.00,,,0.00,Wunderground v.1.15,2013-04-02 10:53:00,
2013-04-02 06:03:00,24.5,17.1,30.33,NW,322,0.0,0.0,73,0.00,,,0.00,Wunderground v.1.15,2013-04-02 11:03:00,
2013-04-02 06:13:00,24.7,17.0,30.33,NW,322,0.0,0.0,72,0.00,,,0.00,Wunderground v.1.15,2013-04-02 11:13:00,
2013-04-02 06:23:00,24.2,16.5,30.34,NW,322,0.0,0.0,72,0.00,,,0.00,Wunderground v.1.15,2013-04-02 11:23:00,
2013-04-02 06:33:00,24.1,16.7,30.34,NW,322,0.0,0.0,73,0.00,,,0.00,Wunderground v.1.15,2013-04-02 11:33:00,
2013-04-02 06:43:00,23.9,16.5,30.34,NW,322,0.0,0.0,73,0.00,,,0.00,Wunderground v.1.15,2013-04-02 11:43:00,
2013-04-02 06:53:00,24.1,16.7,30.35,NW,322,0.0,0.0,73,0.00,,,0.00,Wunderground v.1.15,2013-04-02 11:53:00,
2013-04-02 07:03:00,24.4,17.0,30.36,NW,322,0.0,0.0,73,0.00,,,0.00,Wunderground v.1.15,2013-04-02 12:03:00,
2013-04-02 07:13:00,24.9,17.5,30.36,NW,322,0.0,0.0,73,0.00,,,0.00,Wunderground v.1.15,2013-04-02 12:13:00,
2013-04-02 07:23:00,25.8,18.0,30.36,NW,322,0.0,0.0,72,0.00,,,0.00,Wunderground v.1.15,2013-04-02 12:23:00,
2013-04-02 07:33:00,26.7,18.6,30.36,NW,322,0.0,0.0,71,0.00,,,0.00,Wunderground v.1.15,2013-04-02 12:33:00,
2013-04-02 07:43:00,27.7,18.2,30.37,NW,322,0.0,0.0,67,0.00,,,0.00,Wunderground v.1.15,2013-04-02 12:43:00,
2013-04-02 07:53:00,28.6,18.7,30.38,NW,322,0.0,0.0,66,0.00,,,0.00,Wunderground v.1.15,2013-04-02 12:53:00,
2013-04-02 08:03:00,29.5,19.2,30.38,NW,322,0.0,0.0,65,0.00,,,0.00,Wunderground v.1.15,2013-04-02 13:03:00,
2013-04-02 08:13:00,30.2,19.8,30.38,NW,322,0.0,0.0,65,0.00,,,0.00,Wunderground v.1.15,2013-04-02 13:13:00,
2013-04-02 08:23:00,31.0,19.5,30.38,NW,315,0.0,0.0,62,0.00,,,0.00,Wunderground v.1.15,2013-04-02 13:23:00,
2013-04-02 08:33:00,31.5,19.2,30.38,NNE,32,0.0,0.0,60,0.00,,,0.00,Wunderground v.1.15,2013-04-02 13:33:00,
2013-04-02 08:43:00,32.3,19.6,30.38,NNW,344,0.0,0.0,59,0.00,,,0.00,Wunderground v.1.15,2013-04-02 13:43:00,
2013-04-02 08:53:00,33.3,20.5,30.38,NW,322,0.0,0.0,59,0.00,,,0.00,Wunderground v.1.15,2013-04-02 13:53:00,
2013-04-02 09:03:00,33.9,19.8,30.38,NNW,340,0.0,0.0,56,0.00,,,0.00,Wunderground v.1.15,2013-04-02 14:03:00,
2013-04-02 09:13:00,34.5,19.1,30.38,NNW,331,0.0,0.0,53,0.00,,,0.00,Wunderground v.1.15,2013-04-02 14:13:00,
2013-04-02 09:23:00,35.2,18.9,30.39,NW,325,0.0,0.0,51,0.00,,,0.00,Wunderground v.1.15,2013-04-02 14:23:00,
2013-04-02 09:33:00,35.8,17.0,30.39,North,355,0.0,0.0,46,0.00,,,0.00,Wunderground v.1.15,2013-04-02 14:33:00,
2013-04-02 09:43:00,36.3,15.9,30.39,North,9,0.0,0.0,43,0.00,,,0.00,Wunderground v.1.15,2013-04-02 14:43:00,
2013-04-02 09:53:00,36.7,15.7,30.39,NW,310,0.0,0.0,42,0.00,,,0.00,Wunderground v.1.15,2013-04-02 14:53:00,
2013-04-02 10:03:00,37.6,14.8,30.39,NW,321,0.0,0.0,39,0.00,,,0.00,Wunderground v.1.15,2013-04-02 15:03:00,
2013-04-02 10:13:00,38.0,12.1,30.39,NW,314,0.0,0.0,34,0.00,,,0.00,Wunderground v.1.15,2013-04-02 15:13:00,
2013-04-02 10:23:00,38.5,11.8,30.39,NNW,347,0.0,0.0,33,0.00,,,0.00,Wunderground v.1.15,2013-04-02 15:23:00,
2013-04-02 10:33:00,39.2,11.8,30.39,NW,321,0.0,0.0,32,0.00,,,0.00,Wunderground v.1.15,2013-04-02 15:33:00,
2013-04-02 10:43:00,39.9,11.7,30.38,NNW,329,0.0,0.0,31,0.00,,,0.00,Wunderground v.1.15,2013-04-02 15:43:00,
2013-04-02 10:52:00,40.3,12.7,30.38,NNW,335,0.0,0.0,32,0.00,,,0.00,Wunderground v.1.15,2013-04-02 15:52:00,
2013-04-02 11:03:00,40.2,9.6,30.38,NNE,17,0.0,0.0,28,0.00,,,0.00,Wunderground v.1.15,2013-04-02 16:03:00,
2013-04-02 11:13:00,41.3,10.6,30.38,NW,319,0.0,0.0,28,0.00,,,0.00,Wunderground v.1.15,2013-04-02 16:13:00,
2013-04-02 11:23:00,42.3,11.5,30.38,WNW,291,0.0,0.0,28,0.00,,,0.00,Wunderground v.1.15,2013-04-02 16:23:00,
2013-04-02 11:33:00,42.8,11.9,30.37,WNW,287,0.0,0.0,28,0.00,,,0.00,Wunderground v.1.15,2013-04-02 16:33:00,
2013-04-02 11:43:00,43.3,7.9,30.37,NNW,330,0.0,0.0,23,0.00,,,0.00,Wunderground v.1.15,2013-04-02 16:43:00,
2013-04-02 11:53:00,43.3,9.8,30.37,NW,320,0.0,0.0,25,0.00,,,0.00,Wunderground v.1.15,2013-04-02 16:53:00,
2013-04-02 12:03:00,43.2,9.7,30.36,South,184,0.0,0.0,25,0.00,,,0.00,Wunderground v.1.15,2013-04-02 17:03:00,
2013-04-02 12:12:00,43.9,10.3,30.36,NNW,330,0.0,0.0,25,0.00,,,0.00,Wunderground v.1.15,2013-04-02 17:12:00,
2013-04-02 12:23:00,43.5,10.8,30.36,NNW,332,0.0,0.0,26,0.00,,,0.00,Wunderground v.1.15,2013-04-02 17:23:00,
2013-04-02 12:33:00,45.6,8.9,30.35,NNW,329,0.0,0.0,22,0.00,,,0.00,Wunderground v.1.15,2013-04-02 17:33:00,
2013-04-02 12:47:00,46.3,8.4,30.34,NNW,346,0.0,0.0,21,0.00,,,0.00,Wunderground v.1.15,2013-04-02 17:47:00,
2013-04-02 12:53:00,45.9,10.1,30.34,NW,323,0.0,0.0,23,0.00,,,0.00,Wunderground v.1.15,2013-04-02 17:53:00,
2013-04-02 13:03:00,45.6,10.8,30.34,North,360,0.0,0.0,24,0.00,,,0.00,Wunderground v.1.15,2013-04-02 18:03:00,
2013-04-02 13:13:00,46.9,10.0,30.34,WNW,298,0.0,0.0,22,0.00,,,0.00,Wunderground v.1.15,2013-04-02 18:13:00,
2013-04-02 13:23:00,46.3,6.2,30.33,NW,320,0.0,0.0,19,0.00,,,0.00,Wunderground v.1.15,2013-04-02 18:23:00,
2013-04-02 13:33:00,47.8,8.6,30.33,WNW,302,0.0,0.0,20,0.00,,,0.00,Wunderground v.1.15,2013-04-02 18:33:00,
2013-04-02 13:43:00,47.2,5.8,30.32,NNW,347,0.0,0.0,18,0.00,,,0.00,Wunderground v.1.15,2013-04-02 18:43:00,
2013-04-02 13:53:00,48.0,6.4,30.32,SSE,148,0.0,0.0,18,0.00,,,0.00,Wunderground v.1.15,2013-04-02 18:53:00,
2013-04-02 14:03:00,48.2,7.8,30.31,WNW,297,0.0,0.0,19,0.00,,,0.00,Wunderground v.1.15,2013-04-02 19:03:00,
2013-04-02 14:13:00,48.4,8.0,30.31,SW,215,0.0,0.0,19,0.00,,,0.00,Wunderground v.1.15,2013-04-02 19:13:00,
2013-04-02 14:23:00,48.8,7.1,30.31,WNW,283,0.0,0.0,18,0.00,,,0.00,Wunderground v.1.15,2013-04-02 19:23:00,
2013-04-02 14:33:00,49.9,5.4,30.31,NW,319,0.0,0.0,16,0.00,,,0.00,Wunderground v.1.15,2013-04-02 19:33:00,
2013-04-02 14:43:00,49.6,12.2,30.31,SSW,194,0.0,0.0,22,0.00,,,0.00,Wunderground v.1.15,2013-04-02 19:43:00,
2013-04-02 14:53:00,50.2,7.0,30.31,NNE,17,0.0,0.0,17,0.00,,,0.00,Wunderground v.1.15,2013-04-02 19:53:00,
2013-04-02 15:03:00,50.2,11.7,30.30,SW,229,0.0,0.0,21,0.00,,,0.00,Wunderground v.1.15,2013-04-02 20:03:00,
2013-04-02 15:13:00,50.6,3.1,30.30,NNW,333,0.0,0.0,14,0.00,,,0.00,Wunderground v.1.15,2013-04-02 20:13:00,
2013-04-02 15:23:00,49.9,6.7,30.30,NNW,339,0.0,0.0,17,0.00,,,0.00,Wunderground v.1.15,2013-04-02 20:23:00,
2013-04-02 15:33:00,49.0,7.3,30.30,North,360,0.0,0.0,18,0.00,,,0.00,Wunderground v.1.15,2013-04-02 20:33:00,
2013-04-02 15:43:00,49.6,6.5,30.30,NNW,331,0.0,0.0,17,0.00,,,0.00,Wunderground v.1.15,2013-04-02 20:43:00,
2013-04-02 15:57:00,51.4,5.2,30.30,NW,311,0.0,0.0,15,0.00,,,0.00,Wunderground v.1.15,2013-04-02 20:57:00,
2013-04-02 16:03:00,51.6,8.1,30.30,NW,320,0.0,0.0,17,0.00,,,0.00,Wunderground v.1.15,2013-04-02 21:03:00,
2013-04-02 16:13:00,51.2,3.5,30.29,SW,221,0.0,0.0,14,0.00,,,0.00,Wunderground v.1.15,2013-04-02 21:13:00,
2013-04-02 16:23:00,51.9,5.6,30.29,North,355,0.0,0.0,15,0.00,,,0.00,Wunderground v.1.15,2013-04-02 21:23:00,
2013-04-02 16:37:00,50.5,3.0,30.29,NW,315,0.0,0.0,14,0.00,,,0.00,Wunderground v.1.15,2013-04-02 21:37:00,
2013-04-02 16:43:00,50.2,4.2,30.29,NW,317,0.0,0.0,15,0.00,,,0.00,Wunderground v.1.15,2013-04-02 21:43:00,
2013-04-02 16:53:00,50.3,2.8,30.30,NNW,340,0.0,0.0,14,0.00,,,0.00,Wunderground v.1.15,2013-04-02 21:53:00,
2013-04-02 17:03:00,50.5,7.2,30.29,NNW,340,0.0,0.0,17,0.00,,,0.00,Wunderground v.1.15,2013-04-02 22:03:00,
2013-04-02 17:13:00,50.6,4.6,30.29,WNW,285,0.0,0.0,15,0.00,,,0.00,Wunderground v.1.15,2013-04-02 22:13:00,
2013-04-02 17:23:00,49.4,5.0,30.29,North,355,0.0,0.0,16,0.00,,,0.00,Wunderground v.1.15,2013-04-02 22:23:00,
2013-04-02 17:33:00,49.6,9.0,30.29,NNW,330,0.0,0.0,19,0.00,,,0.00,Wunderground v.1.15,2013-04-02 22:33:00,
2013-04-02 17:43:00,49.6,3.8,30.29,NW,308,0.0,0.0,15,0.00,,,0.00,Wunderground v.1.15,2013-04-02 22:43:00,
2013-04-02 17:53:00,49.0,4.7,30.30,NW,318,0.0,0.0,16,0.00,,,0.00,Wunderground v.1.15,2013-04-02 22:53:00,
2013-04-02 18:03:00,48.0,3.9,30.30,WNW,297,0.0,0.0,16,0.00,,,0.00,Wunderground v.1.15,2013-04-02 23:03:00,
2013-04-02 18:13:00,47.4,5.9,30.30,NNW,329,0.0,0.0,18,0.00,,,0.00,Wunderground v.1.15,2013-04-02 23:13:00,
2013-04-02 18:23:00,47.1,4.4,30.30,NW,323,0.0,0.0,17,0.00,,,0.00,Wunderground v.1.15,2013-04-02 23:23:00,
2013-04-02 18:33:00,46.8,5.4,30.30,NW,311,0.0,0.0,18,0.00,,,0.00,Wunderground v.1.15,2013-04-02 23:33:00,
2013-04-02 18:43:00,46.2,4.9,30.30,NNW,336,0.0,0.0,18,0.00,,,0.00,Wunderground v.1.15,2013-04-02 23:43:00,
2013-04-02 18:53:00,45.8,4.6,30.30,NNW,346,0.0,0.0,18,0.00,,,0.00,Wunderground v.1.15,2013-04-02 23:53:00,
2013-04-02 19:03:00,45.3,5.4,30.30,NW,308,0.0,0.0,19,0.00,,,0.00,Wunderground v.1.15,2013-04-03 00:03:00,
2013-04-02 19:13:00,44.8,6.1,30.31,NNW,329,0.0,0.0,20,0.00,,,0.00,Wunderground v.1.15,2013-04-03 00:13:00,
2013-04-02 19:23:00,44.2,6.7,30.31,NNW,338,0.0,0.0,21,0.00,,,0.00,Wunderground v.1.15,2013-04-03 00:23:00,
2013-04-02 19:33:00,43.5,9.0,30.31,WNW,290,0.0,0.0,24,0.00,,,0.00,Wunderground v.1.15,2013-04-03 00:33:00,
2013-04-02 19:47:00,42.8,10.2,30.32,NNW,335,0.0,0.0,26,0.00,,,0.00,Wunderground v.1.15,2013-04-03 00:47:00,
2013-04-02 19:53:00,42.5,10.8,30.32,NNW,347,0.0,0.0,27,0.00,,,0.00,Wunderground v.1.15,2013-04-03 00:53:00,
2013-04-02 20:02:00,42.2,11.4,30.32,NNW,340,0.0,0.0,28,0.00,,,0.00,Wunderground v.1.15,2013-04-03 01:02:00,
2013-04-02 20:13:00,41.5,12.3,30.32,NNW,340,0.0,0.0,30,0.00,,,0.00,Wunderground v.1.15,2013-04-03 01:13:00,
2013-04-02 20:23:00,41.3,12.9,30.33,NNW,336,0.0,0.0,31,0.00,,,0.00,Wunderground v.1.15,2013-04-03 01:23:00,
2013-04-02 20:33:00,41.1,13.4,30.33,NNW,333,0.0,0.0,32,0.00,,,0.00,Wunderground v.1.15,2013-04-03 01:33:00,
2013-04-02 20:43:00,40.9,14.0,30.33,NNW,346,0.0,0.0,33,0.00,,,0.00,Wunderground v.1.15,2013-04-03 01:43:00,
2013-04-02 20:52:00,40.6,14.4,30.33,North,355,0.0,0.0,34,0.00,,,0.00,Wunderground v.1.15,2013-04-03 01:52:00,
2013-04-02 21:03:00,40.2,14.7,30.34,NNE,25,0.0,0.0,35,0.00,,,0.00,Wunderground v.1.15,2013-04-03 02:03:00,
2013-04-02 21:13:00,39.8,15.0,30.34,NNW,347,0.0,0.0,36,0.00,,,0.00,Wunderground v.1.15,2013-04-03 02:13:00,
2013-04-02 21:23:00,39.8,15.6,30.34,NNW,340,0.0,0.0,37,0.00,,,0.00,Wunderground v.1.15,2013-04-03 02:23:00,
2013-04-02 21:33:00,39.0,15.5,30.35,NNW,343,0.0,0.0,38,0.00,,,0.00,Wunderground v.1.15,2013-04-03 02:33:00,
2013-04-02 21:43:00,38.6,15.7,30.35,NNW,344,0.0,0.0,39,0.00,,,0.00,Wunderground v.1.15,2013-04-03 02:43:00,
2013-04-02 21:53:00,38.2,16.0,30.35,NNW,344,0.0,0.0,40,0.00,,,0.00,Wunderground v.1.15,2013-04-03 02:53:00,
2013-04-02 22:03:00,37.8,16.7,30.35,NNE,23,0.0,0.0,42,0.00,,,0.00,Wunderground v.1.15,2013-04-03 03:03:00,
2013-04-02 22:13:00,37.5,16.5,30.35,NNE,23,0.0,0.0,42,0.00,,,0.00,Wunderground v.1.15,2013-04-03 03:13:00,
2013-04-02 22:22:00,37.2,16.2,30.36,NNE,23,0.0,0.0,42,0.00,,,0.00,Wunderground v.1.15,2013-04-03 03:22:00,
2013-04-02 22:33:00,36.6,16.2,30.36,NNE,23,0.0,0.0,43,0.00,,,0.00,Wunderground v.1.15,2013-04-03 03:33:00,
2013-04-02 22:43:00,36.4,16.0,30.36,NNE,23,0.0,0.0,43,0.00,,,0.00,Wunderground v.1.15,2013-04-03 03:43:00,
2013-04-02 22:53:00,36.4,16.0,30.36,NNE,23,0.0,0.0,43,0.00,,,0.00,Wunderground v.1.15,2013-04-03 03:53:00,
2013-04-02 23:02:00,36.1,16.3,30.36,NNE,14,0.0,0.0,44,0.00,,,0.00,Wunderground v.1.15,2013-04-03 04:02:00,
2013-04-02 23:07:00,36.1,16.3,30.36,NNE,14,0.0,0.0,44,0.00,,,0.00,Wunderground v.1.15,2013-04-03 04:07:00,
2013-04-02 23:12:00,35.8,16.0,30.36,NNE,14,0.0,0.0,44,0.00,,,0.00,Wunderground v.1.15,2013-04-03 04:12:00,
2013-04-02 23:23:00,35.2,16.0,30.36,NNE,14,0.0,0.0,45,0.00,,,0.00,Wunderground v.1.15,2013-04-03 04:23:00,
2013-04-02 23:27:00,34.9,16.2,30.36,NNE,14,0.0,0.0,46,0.00,,,0.00,Wunderground v.1.15,2013-04-03 04:27:00,
2013-04-02 23:33:00,34.7,16.0,30.36,NNE,14,0.0,0.0,46,0.00,,,0.00,Wunderground v.1.15,2013-04-03 04:33:00,
2013-04-02 23:43:00,34.2,16.0,30.36,NNE,14,0.0,0.0,47,0.00,,,0.00,Wunderground v.1.15,2013-04-03 04:43:00,
2013-04-02 23:53:00,34.4,15.7,30.36,NNE,14,0.0,0.0,46,0.00,,,0.00,Wunderground v.1.15,2013-04-03 04:53:00,